Year,Month,Day,Hour,Minute,Value (Times are PST for temperature in C)
2010,03,20,00,00,1.00
2010,03,20,00,01,1.00
2010,03,20,00,02,1.00
2010,03,20,00,03,1.00
2010,03,20,00,04,1.00
2010,03,20,00,05,1.00
2010,03,20,00,06,1.00
2010,03,20,00,07,1.00
2010,03,20,00,08,1.00
2010,03,20,00,09,0.90
2010,03,20,00,10,0.90
2010,03,20,00,11,0.90
2010,03,20,00,12,0.90
2010,03,20,00,13,0.90
2010,03,20,00,14,0.90
2010,03,20,00,15,0.90
2010,03,20,00,16,0.90
2010,03,20,00,17,0.90
2010,03,20,00,18,0.90
2010,03,20,00,19,0.90
2010,03,20,00,20,0.80
2010,03,20,00,21,0.80
2010,03,20,00,22,0.80
2010,03,20,00,23,0.80
2010,03,20,00,24,0.80
2010,03,20,00,25,0.80
2010,03,20,00,26,0.80
2010,03,20,00,27,0.80
2010,03,20,00,28,0.80
2010,03,20,00,29,0.80
2010,03,20,00,30,0.80
2010,03,20,00,31,0.80
2010,03,20,00,32,0.80
2010,03,20,00,33,0.80
2010,03,20,00,34,0.70
2010,03,20,00,35,0.70
2010,03,20,00,36,0.70
2010,03,20,00,37,0.70
2010,03,20,00,38,0.70
2010,03,20,00,39,0.70
2010,03,20,00,40,0.70
2010,03,20,00,41,0.70
2010,03,20,00,42,0.60
2010,03,20,00,43,0.60
2010,03,20,00,44,0.60
2010,03,20,00,45,0.60
2010,03,20,00,46,0.60
2010,03,20,00,47,0.60
2010,03,20,00,48,0.60
2010,03,20,00,49,0.60
2010,03,20,00,50,0.60
2010,03,20,00,51,0.60
2010,03,20,00,52,0.60
2010,03,20,00,53,0.60
2010,03,20,00,54,0.70
2010,03,20,00,55,0.70
2010,03,20,00,56,0.70
2010,03,20,00,57,0.70
2010,03,20,00,58,0.70
2010,03,20,00,59,0.70
2010,03,20,01,00,0.70
2010,03,20,01,01,0.70
2010,03,20,01,02,0.60
2010,03,20,01,03,0.60
2010,03,20,01,04,0.60
2010,03,20,01,05,0.60
2010,03,20,01,06,0.60
2010,03,20,01,07,0.60
2010,03,20,01,08,0.60
2010,03,20,01,09,0.50
2010,03,20,01,10,0.50
2010,03,20,01,11,0.50
2010,03,20,01,12,0.40
2010,03,20,01,13,0.40
2010,03,20,01,14,0.40
2010,03,20,01,15,0.30
2010,03,20,01,16,0.30
2010,03,20,01,17,0.30
2010,03,20,01,18,0.30
2010,03,20,01,19,0.30
2010,03,20,01,20,0.30
2010,03,20,01,21,0.30
2010,03,20,01,22,0.30
2010,03,20,01,23,0.30
2010,03,20,01,24,0.20
2010,03,20,01,25,0.20
2010,03,20,01,26,0.20
2010,03,20,01,27,0.20
2010,03,20,01,28,0.20
2010,03,20,01,29,0.20
2010,03,20,01,30,0.20
2010,03,20,01,31,0.20
2010,03,20,01,32,0.20
2010,03,20,01,33,0.20
2010,03,20,01,34,0.20
2010,03,20,01,35,0.20
2010,03,20,01,36,0.20
2010,03,20,01,37,0.30
2010,03,20,01,38,0.40
2010,03,20,01,39,0.50
2010,03,20,01,40,0.60
2010,03,20,01,41,0.60
2010,03,20,01,42,0.50
2010,03,20,01,43,0.50
2010,03,20,01,44,0.50
2010,03,20,01,45,0.40
2010,03,20,01,46,0.40
2010,03,20,01,47,0.40
2010,03,20,01,48,0.30
2010,03,20,01,49,0.30
2010,03,20,01,50,0.30
2010,03,20,01,51,0.30
2010,03,20,01,52,0.20
2010,03,20,01,53,0.20
2010,03,20,01,54,0.20
2010,03,20,01,55,0.20
2010,03,20,01,56,0.20
2010,03,20,01,57,0.20
2010,03,20,01,58,0.30
2010,03,20,01,59,0.30
2010,03,20,02,00,0.30
2010,03,20,02,01,0.30
2010,03,20,02,02,0.30
2010,03,20,02,03,0.30
2010,03,20,02,04,0.30
2010,03,20,02,05,0.30
2010,03,20,02,06,0.30
2010,03,20,02,07,0.30
2010,03,20,02,08,0.30
2010,03,20,02,09,0.30
2010,03,20,02,10,0.30
2010,03,20,02,11,0.30
2010,03,20,02,12,0.30
2010,03,20,02,13,0.30
2010,03,20,02,14,0.30
2010,03,20,02,15,0.20
2010,03,20,02,16,0.20
2010,03,20,02,17,0.20
2010,03,20,02,18,0.20
2010,03,20,02,19,0.10
2010,03,20,02,20,0.10
2010,03,20,02,21,0.10
2010,03,20,02,22,0.00
2010,03,20,02,23,0.00
2010,03,20,02,24,-0.10
2010,03,20,02,25,-0.10
2010,03,20,02,26,-0.10
2010,03,20,02,27,-0.10
2010,03,20,02,28,-0.10
2010,03,20,02,29,-0.10
2010,03,20,02,30,-0.20
2010,03,20,02,31,-0.20
2010,03,20,02,32,-0.20
2010,03,20,02,33,-0.20
2010,03,20,02,34,-0.20
2010,03,20,02,35,-0.20
2010,03,20,02,36,-0.20
2010,03,20,02,37,-0.20
2010,03,20,02,38,-0.20
2010,03,20,02,39,-0.20
2010,03,20,02,40,-0.20
2010,03,20,02,41,-0.20
2010,03,20,02,42,-0.20
2010,03,20,02,43,-0.20
2010,03,20,02,44,-0.10
2010,03,20,02,45,-0.10
2010,03,20,02,46,-0.20
2010,03,20,02,47,-0.20
2010,03,20,02,48,-0.20
2010,03,20,02,49,-0.10
2010,03,20,02,50,-0.10
2010,03,20,02,51,-0.10
2010,03,20,02,52,-0.10
2010,03,20,02,53,-0.20
2010,03,20,02,54,-0.20
2010,03,20,02,55,-0.20
2010,03,20,02,56,-0.20
2010,03,20,02,57,-0.20
2010,03,20,02,58,-0.20
2010,03,20,02,59,-0.20
2010,03,20,03,00,-0.20
2010,03,20,03,01,-0.20
2010,03,20,03,02,-0.20
2010,03,20,03,03,-0.10
2010,03,20,03,04,-0.10
2010,03,20,03,05,-0.10
2010,03,20,03,06,-0.10
2010,03,20,03,07,-0.10
2010,03,20,03,08,-0.20
2010,03,20,03,09,-0.20
2010,03,20,03,10,-0.20
2010,03,20,03,11,-0.20
2010,03,20,03,12,-0.20
2010,03,20,03,13,-0.20
2010,03,20,03,14,-0.10
2010,03,20,03,15,-0.10
2010,03,20,03,16,-0.10
2010,03,20,03,17,-0.10
2010,03,20,03,18,-0.20
2010,03,20,03,19,-0.20
2010,03,20,03,20,-0.20
2010,03,20,03,21,-0.20
2010,03,20,03,22,-0.20
2010,03,20,03,23,-0.20
2010,03,20,03,24,-0.20
2010,03,20,03,25,-0.20
2010,03,20,03,26,-0.20
2010,03,20,03,27,-0.10
2010,03,20,03,28,0.00
2010,03,20,03,29,0.10
2010,03,20,03,30,0.20
2010,03,20,03,31,0.30
2010,03,20,03,32,0.30
2010,03,20,03,33,0.30
2010,03,20,03,34,0.30
2010,03,20,03,35,0.20
2010,03,20,03,36,0.20
2010,03,20,03,37,0.20
2010,03,20,03,38,0.10
2010,03,20,03,39,0.10
2010,03,20,03,40,0.10
2010,03,20,03,41,0.10
2010,03,20,03,42,0.20
2010,03,20,03,43,0.20
2010,03,20,03,44,0.30
2010,03,20,03,45,0.20
2010,03,20,03,46,0.20
2010,03,20,03,47,0.20
2010,03,20,03,48,0.30
2010,03,20,03,49,0.30
2010,03,20,03,50,0.40
2010,03,20,03,51,0.60
2010,03,20,03,52,0.70
2010,03,20,03,53,0.80
2010,03,20,03,54,0.80
2010,03,20,03,55,0.80
2010,03,20,03,56,0.80
2010,03,20,03,57,0.80
2010,03,20,03,58,0.80
2010,03,20,03,59,0.90
2010,03,20,04,00,0.90
2010,03,20,04,01,0.90
2010,03,20,04,02,1.00
2010,03,20,04,03,1.10
2010,03,20,04,04,1.20
2010,03,20,04,05,1.30
2010,03,20,04,06,1.30
2010,03,20,04,07,1.30
2010,03,20,04,08,1.30
2010,03,20,04,09,1.30
2010,03,20,04,10,1.30
2010,03,20,04,11,1.30
2010,03,20,04,12,1.30
2010,03,20,04,13,1.30
2010,03,20,04,14,1.30
2010,03,20,04,15,1.30
2010,03,20,04,16,1.30
2010,03,20,04,17,1.30
2010,03,20,04,18,1.30
2010,03,20,04,19,1.30
2010,03,20,04,20,1.30
2010,03,20,04,21,1.30
2010,03,20,04,22,1.30
2010,03,20,04,23,1.20
2010,03,20,04,24,1.20
2010,03,20,04,25,1.10
2010,03,20,04,26,1.10
2010,03,20,04,27,1.20
2010,03,20,04,28,1.20
2010,03,20,04,29,1.20
2010,03,20,04,30,1.10
2010,03,20,04,31,1.10
2010,03,20,04,32,1.00
2010,03,20,04,33,1.00
2010,03,20,04,34,1.00
2010,03,20,04,35,1.10
2010,03,20,04,36,1.10
2010,03,20,04,37,1.20
2010,03,20,04,38,1.30
2010,03,20,04,39,1.30
2010,03,20,04,40,1.30
2010,03,20,04,41,1.30
2010,03,20,04,42,1.30
2010,03,20,04,43,1.40
2010,03,20,04,44,1.50
2010,03,20,04,45,1.60
2010,03,20,04,46,1.70
2010,03,20,04,47,1.80
2010,03,20,04,48,2.00
2010,03,20,04,49,2.10
2010,03,20,04,50,2.20
2010,03,20,04,51,2.30
2010,03,20,04,52,2.30
2010,03,20,04,53,2.30
2010,03,20,04,54,2.30
2010,03,20,04,55,2.30
2010,03,20,04,56,2.30
2010,03,20,04,57,2.30
2010,03,20,04,58,2.30
2010,03,20,04,59,2.20
2010,03,20,05,00,2.20
2010,03,20,05,01,2.30
2010,03,20,05,02,2.30
2010,03,20,05,03,2.30
2010,03,20,05,04,2.30
2010,03,20,05,05,2.30
2010,03,20,05,06,2.20
2010,03,20,05,07,2.10
2010,03,20,05,08,2.00
2010,03,20,05,09,1.90
2010,03,20,05,10,1.80
2010,03,20,05,11,1.80
2010,03,20,05,12,1.90
2010,03,20,05,13,1.90
2010,03,20,05,14,1.90
2010,03,20,05,15,2.00
2010,03,20,05,16,2.00
2010,03,20,05,17,2.10
2010,03,20,05,18,2.10
2010,03,20,05,19,2.20
2010,03,20,05,20,2.20
2010,03,20,05,21,2.30
2010,03,20,05,22,2.30
2010,03,20,05,23,2.40
2010,03,20,05,24,2.40
2010,03,20,05,25,2.40
2010,03,20,05,26,2.30
2010,03,20,05,27,2.20
2010,03,20,05,28,2.20
2010,03,20,05,29,2.10
2010,03,20,05,30,2.10
2010,03,20,05,31,2.10
2010,03,20,05,32,2.10
2010,03,20,05,33,2.10
2010,03,20,05,34,2.00
2010,03,20,05,35,1.80
2010,03,20,05,36,1.80
2010,03,20,05,37,1.80
2010,03,20,05,38,1.90
2010,03,20,05,39,1.90
2010,03,20,05,40,1.90
2010,03,20,05,41,1.90
2010,03,20,05,42,1.90
2010,03,20,05,43,1.90
2010,03,20,05,44,1.90
2010,03,20,05,45,2.00
2010,03,20,05,46,2.00
2010,03,20,05,47,2.00
2010,03,20,05,48,2.10
2010,03,20,05,49,2.10
2010,03,20,05,50,2.20
2010,03,20,05,51,2.20
2010,03,20,05,52,2.20
2010,03,20,05,53,2.20
2010,03,20,05,54,2.20
2010,03,20,05,55,2.20
2010,03,20,05,56,2.20
2010,03,20,05,57,2.20
2010,03,20,05,58,2.20
2010,03,20,05,59,2.10
2010,03,20,06,00,2.00
2010,03,20,06,01,1.80
2010,03,20,06,02,1.70
2010,03,20,06,03,1.50
2010,03,20,06,04,1.40
2010,03,20,06,05,1.30
2010,03,20,06,06,1.10
2010,03,20,06,07,1.00
2010,03,20,06,08,0.90
2010,03,20,06,09,0.80
2010,03,20,06,10,0.70
2010,03,20,06,11,0.70
2010,03,20,06,12,0.60
2010,03,20,06,13,0.50
2010,03,20,06,14,0.30
2010,03,20,06,15,0.30
2010,03,20,06,16,0.20
2010,03,20,06,17,0.20
2010,03,20,06,18,0.10
2010,03,20,06,19,0.10
2010,03,20,06,20,0.10
2010,03,20,06,21,0.00
2010,03,20,06,22,-0.10
2010,03,20,06,23,-0.10
2010,03,20,06,24,-0.10
2010,03,20,06,25,-0.20
2010,03,20,06,26,-0.20
2010,03,20,06,27,-0.20
2010,03,20,06,28,-0.20
2010,03,20,06,29,-0.20
2010,03,20,06,30,-0.30
2010,03,20,06,31,-0.30
2010,03,20,06,32,-0.30
2010,03,20,06,33,-0.30
2010,03,20,06,34,-0.30
2010,03,20,06,35,-0.20
2010,03,20,06,36,-0.20
2010,03,20,06,37,-0.10
2010,03,20,06,38,-0.10
2010,03,20,06,39,0.00
2010,03,20,06,40,0.00
2010,03,20,06,41,0.00
2010,03,20,06,42,0.00
2010,03,20,06,43,0.10
2010,03,20,06,44,0.10
2010,03,20,06,45,0.00
2010,03,20,06,46,0.00
2010,03,20,06,47,-0.10
2010,03,20,06,48,-0.20
2010,03,20,06,49,-0.20
2010,03,20,06,50,-0.20
2010,03,20,06,51,-0.30
2010,03,20,06,52,-0.30
2010,03,20,06,53,-0.20
2010,03,20,06,54,-0.20
2010,03,20,06,55,-0.20
2010,03,20,06,56,-0.20
2010,03,20,06,57,-0.20
2010,03,20,06,58,-0.20
2010,03,20,06,59,-0.20
2010,03,20,07,00,-0.20
2010,03,20,07,01,-0.30
2010,03,20,07,02,-0.30
2010,03,20,07,03,-0.30
2010,03,20,07,04,-0.40
2010,03,20,07,05,-0.40
2010,03,20,07,06,-0.40
2010,03,20,07,07,-0.50
2010,03,20,07,08,-0.50
2010,03,20,07,09,-0.50
2010,03,20,07,10,-0.50
2010,03,20,07,11,-0.60
2010,03,20,07,12,-0.60
2010,03,20,07,13,-0.60
2010,03,20,07,14,-0.60
2010,03,20,07,15,-0.60
2010,03,20,07,16,-0.60
2010,03,20,07,17,-0.60
2010,03,20,07,18,-0.60
2010,03,20,07,19,-0.60
2010,03,20,07,20,-0.60
2010,03,20,07,21,-0.60
2010,03,20,07,22,-0.60
2010,03,20,07,23,-0.60
2010,03,20,07,24,-0.60
2010,03,20,07,25,-0.50
2010,03,20,07,26,-0.50
2010,03,20,07,27,-0.50
2010,03,20,07,28,-0.60
2010,03,20,07,29,-0.60
2010,03,20,07,30,-0.60
2010,03,20,07,31,-0.60
2010,03,20,07,32,-0.60
2010,03,20,07,33,-0.60
2010,03,20,07,34,-0.60
2010,03,20,07,35,-0.60
2010,03,20,07,36,-0.60
2010,03,20,07,37,-0.60
2010,03,20,07,38,-0.60
2010,03,20,07,39,-0.60
2010,03,20,07,40,-0.60
2010,03,20,07,41,-0.60
2010,03,20,07,42,-0.60
2010,03,20,07,43,-0.60
2010,03,20,07,44,-0.60
2010,03,20,07,45,-0.60
2010,03,20,07,46,-0.60
2010,03,20,07,47,-0.60
2010,03,20,07,48,-0.60
2010,03,20,07,49,-0.60
2010,03,20,07,50,-0.50
2010,03,20,07,51,-0.50
2010,03,20,07,52,-0.60
2010,03,20,07,53,-0.60
2010,03,20,07,54,-0.60
2010,03,20,07,55,-0.60
2010,03,20,07,56,-0.50
2010,03,20,07,57,-0.50
2010,03,20,07,58,-0.40
2010,03,20,07,59,-0.40
2010,03,20,08,00,-0.40
2010,03,20,08,01,-0.40
2010,03,20,08,02,-0.40
2010,03,20,08,03,-0.40
2010,03,20,08,04,-0.30
2010,03,20,08,05,-0.30
2010,03,20,08,06,-0.30
2010,03,20,08,07,-0.30
2010,03,20,08,08,-0.30
2010,03,20,08,09,-0.30
2010,03,20,08,10,-0.30
2010,03,20,08,11,-0.20
2010,03,20,08,12,-0.30
2010,03,20,08,13,-0.20
2010,03,20,08,14,-0.20
2010,03,20,08,15,-0.10
2010,03,20,08,16,0.00
2010,03,20,08,17,0.00
2010,03,20,08,18,0.10
2010,03,20,08,19,0.20
2010,03,20,08,20,0.30
2010,03,20,08,21,0.30
2010,03,20,08,22,0.40
2010,03,20,08,23,0.50
2010,03,20,08,24,0.60
2010,03,20,08,25,0.70
2010,03,20,08,26,0.80
2010,03,20,08,27,0.80
2010,03,20,08,28,0.80
2010,03,20,08,29,0.90
2010,03,20,08,30,1.00
2010,03,20,08,31,1.10
2010,03,20,08,32,1.20
2010,03,20,08,33,1.30
2010,03,20,08,34,1.30
2010,03,20,08,35,1.40
2010,03,20,08,36,1.60
2010,03,20,08,37,1.80
2010,03,20,08,38,1.90
2010,03,20,08,39,2.00
2010,03,20,08,40,2.10
2010,03,20,08,41,2.30
2010,03,20,08,42,2.50
2010,03,20,08,43,2.60
2010,03,20,08,44,2.70
2010,03,20,08,45,2.80
2010,03,20,08,46,2.80
2010,03,20,08,47,2.90
2010,03,20,08,48,3.00
2010,03,20,08,49,3.20
2010,03,20,08,50,3.20
2010,03,20,08,51,3.30
2010,03,20,08,52,3.50
2010,03,20,08,53,3.60
2010,03,20,08,54,3.70
2010,03,20,08,55,3.80
2010,03,20,08,56,4.00
2010,03,20,08,57,4.10
2010,03,20,08,58,4.20
2010,03,20,08,59,4.30
2010,03,20,09,00,4.40
2010,03,20,09,01,4.50
2010,03,20,09,02,4.60
2010,03,20,09,03,4.70
2010,03,20,09,04,4.80
2010,03,20,09,05,4.90
2010,03,20,09,06,5.00
2010,03,20,09,07,5.00
2010,03,20,09,08,5.10
2010,03,20,09,09,5.20
2010,03,20,09,10,5.20
2010,03,20,09,11,5.30
2010,03,20,09,12,5.40
2010,03,20,09,13,5.40
2010,03,20,09,14,5.50
2010,03,20,09,15,5.60
2010,03,20,09,16,5.70
2010,03,20,09,17,5.70
2010,03,20,09,18,5.80
2010,03,20,09,19,5.80
2010,03,20,09,20,5.90
2010,03,20,09,21,5.90
2010,03,20,09,22,6.00
2010,03,20,09,23,6.10
2010,03,20,09,24,6.20
2010,03,20,09,25,6.30
2010,03,20,09,26,6.30
2010,03,20,09,27,6.40
2010,03,20,09,28,6.50
2010,03,20,09,29,6.60
2010,03,20,09,30,6.60
2010,03,20,09,31,6.70
2010,03,20,09,32,6.70
2010,03,20,09,33,6.80
2010,03,20,09,34,6.80
2010,03,20,09,35,6.80
2010,03,20,09,36,6.80
2010,03,20,09,37,6.80
2010,03,20,09,38,6.90
2010,03,20,09,39,6.90
2010,03,20,09,40,6.90
2010,03,20,09,41,7.00
2010,03,20,09,42,7.00
2010,03,20,09,43,7.10
2010,03,20,09,44,7.10
2010,03,20,09,45,7.20
2010,03,20,09,46,7.20
2010,03,20,09,47,7.20
2010,03,20,09,48,7.20
2010,03,20,09,49,7.30
2010,03,20,09,50,7.40
2010,03,20,09,51,7.50
2010,03,20,09,52,7.50
2010,03,20,09,53,7.60
2010,03,20,09,54,7.70
2010,03,20,09,55,7.80
2010,03,20,09,56,7.90
2010,03,20,09,57,7.90
2010,03,20,09,58,8.00
2010,03,20,09,59,8.00
2010,03,20,10,00,8.00
2010,03,20,10,01,8.00
2010,03,20,10,02,7.80
2010,03,20,10,03,7.70
2010,03,20,10,04,7.60
2010,03,20,10,05,7.50
2010,03,20,10,06,7.40
2010,03,20,10,07,7.40
2010,03,20,10,08,7.40
2010,03,20,10,09,7.50
2010,03,20,10,10,7.50
2010,03,20,10,11,7.60
2010,03,20,10,12,7.60
2010,03,20,10,13,7.70
2010,03,20,10,14,7.80
2010,03,20,10,15,7.90
2010,03,20,10,16,8.00
2010,03,20,10,17,8.00
2010,03,20,10,18,8.10
2010,03,20,10,19,8.20
2010,03,20,10,20,8.20
2010,03,20,10,21,8.30
2010,03,20,10,22,8.30
2010,03,20,10,23,8.30
2010,03,20,10,24,8.40
2010,03,20,10,25,8.40
2010,03,20,10,26,8.40
2010,03,20,10,27,8.40
2010,03,20,10,28,8.40
2010,03,20,10,29,8.40
2010,03,20,10,30,8.30
2010,03,20,10,31,8.20
2010,03,20,10,32,8.20
2010,03,20,10,33,8.10
2010,03,20,10,34,8.00
2010,03,20,10,35,8.00
2010,03,20,10,36,7.90
2010,03,20,10,37,7.80
2010,03,20,10,38,7.80
2010,03,20,10,39,7.70
2010,03,20,10,40,7.70
2010,03,20,10,41,7.60
2010,03,20,10,42,7.60
2010,03,20,10,43,7.50
2010,03,20,10,44,7.50
2010,03,20,10,45,7.40
2010,03,20,10,46,7.40
2010,03,20,10,47,7.40
2010,03,20,10,48,7.40
2010,03,20,10,49,7.40
2010,03,20,10,50,7.40
2010,03,20,10,51,7.40
2010,03,20,10,52,7.50
2010,03,20,10,53,7.50
2010,03,20,10,54,7.50
2010,03,20,10,55,7.60
2010,03,20,10,56,7.70
2010,03,20,10,57,7.70
2010,03,20,10,58,7.80
2010,03,20,10,59,7.80
2010,03,20,11,00,7.90
2010,03,20,11,01,8.00
2010,03,20,11,02,8.20
2010,03,20,11,03,8.30
2010,03,20,11,04,8.50
2010,03,20,11,05,8.70
2010,03,20,11,06,8.80
2010,03,20,11,07,8.90
2010,03,20,11,08,9.10
2010,03,20,11,09,9.20
2010,03,20,11,10,9.20
2010,03,20,11,11,9.30
2010,03,20,11,12,9.40
2010,03,20,11,13,9.40
2010,03,20,11,14,9.50
2010,03,20,11,15,9.60
2010,03,20,11,16,9.70
2010,03,20,11,17,9.80
2010,03,20,11,18,9.90
2010,03,20,11,19,9.80
2010,03,20,11,20,9.80
2010,03,20,11,21,9.80
2010,03,20,11,22,9.80
2010,03,20,11,23,9.80
2010,03,20,11,24,9.80
2010,03,20,11,25,9.80
2010,03,20,11,26,9.80
2010,03,20,11,27,9.80
2010,03,20,11,28,9.80
2010,03,20,11,29,9.80
2010,03,20,11,30,9.80
2010,03,20,11,31,9.80
2010,03,20,11,32,9.90
2010,03,20,11,33,9.90
2010,03,20,11,34,10.00
2010,03,20,11,35,10.00
2010,03,20,11,36,10.00
2010,03,20,11,37,10.00
2010,03,20,11,38,9.90
2010,03,20,11,39,9.90
2010,03,20,11,40,10.00
2010,03,20,11,41,10.00
2010,03,20,11,42,10.10
2010,03,20,11,43,10.10
2010,03,20,11,44,10.10
2010,03,20,11,45,10.10
2010,03,20,11,46,10.00
2010,03,20,11,47,10.00
2010,03,20,11,48,10.10
2010,03,20,11,49,10.10
2010,03,20,11,50,10.10
2010,03,20,11,51,10.20
2010,03,20,11,52,10.20
2010,03,20,11,53,10.20
2010,03,20,11,54,10.30
2010,03,20,11,55,10.30
2010,03,20,11,56,10.40
2010,03,20,11,57,10.40
2010,03,20,11,58,10.50
2010,03,20,11,59,10.60
2010,03,20,12,00,10.70
2010,03,20,12,01,10.70
2010,03,20,12,02,10.70
2010,03,20,12,03,10.70
2010,03,20,12,04,10.70
2010,03,20,12,05,10.70
2010,03,20,12,06,10.80
2010,03,20,12,07,10.80
2010,03,20,12,08,10.90
2010,03,20,12,09,11.00
2010,03,20,12,10,11.10
2010,03,20,12,11,11.10
2010,03,20,12,12,11.10
2010,03,20,12,13,11.10
2010,03,20,12,14,11.00
2010,03,20,12,15,11.00
2010,03,20,12,16,11.00
2010,03,20,12,17,11.00
2010,03,20,12,18,11.00
2010,03,20,12,19,10.90
2010,03,20,12,20,11.00
2010,03,20,12,21,11.00
2010,03,20,12,22,10.90
2010,03,20,12,23,11.00
2010,03,20,12,24,11.00
2010,03,20,12,25,11.10
2010,03,20,12,26,11.10
2010,03,20,12,27,11.20
2010,03,20,12,28,11.20
2010,03,20,12,29,11.20
2010,03,20,12,30,11.20
2010,03,20,12,31,11.30
2010,03,20,12,32,11.30
2010,03,20,12,33,11.40
2010,03,20,12,34,11.40
2010,03,20,12,35,11.30
2010,03,20,12,36,11.30
2010,03,20,12,37,11.30
2010,03,20,12,38,11.30
2010,03,20,12,39,11.20
2010,03,20,12,40,11.20
2010,03,20,12,41,11.20
2010,03,20,12,42,11.20
2010,03,20,12,43,11.20
2010,03,20,12,44,11.20
2010,03,20,12,45,11.20
2010,03,20,12,46,11.20
2010,03,20,12,47,11.20
2010,03,20,12,48,11.20
2010,03,20,12,49,11.30
2010,03,20,12,50,11.30
2010,03,20,12,51,11.30
2010,03,20,12,52,11.30
2010,03,20,12,53,11.30
2010,03,20,12,54,11.30
2010,03,20,12,55,11.40
2010,03,20,12,56,11.40
2010,03,20,12,57,11.50
2010,03,20,12,58,11.60
2010,03,20,12,59,11.60
2010,03,20,13,00,11.60
2010,03,20,13,01,11.70
2010,03,20,13,02,11.70
2010,03,20,13,03,11.80
2010,03,20,13,04,11.70
2010,03,20,13,05,11.80
2010,03,20,13,06,11.90
2010,03,20,13,07,11.90
2010,03,20,13,08,11.90
2010,03,20,13,09,11.90
2010,03,20,13,10,11.90
2010,03,20,13,11,11.90
2010,03,20,13,12,11.90
2010,03,20,13,13,11.80
2010,03,20,13,14,11.80
2010,03,20,13,15,11.80
2010,03,20,13,16,11.70
2010,03,20,13,17,11.70
2010,03,20,13,18,11.70
2010,03,20,13,19,11.70
2010,03,20,13,20,11.70
2010,03,20,13,21,11.70
2010,03,20,13,22,11.80
2010,03,20,13,23,11.80
2010,03,20,13,24,11.80
2010,03,20,13,25,11.80
2010,03,20,13,26,11.90
2010,03,20,13,27,11.90
2010,03,20,13,28,11.90
2010,03,20,13,29,11.90
2010,03,20,13,30,11.90
2010,03,20,13,31,11.90
2010,03,20,13,32,11.90
2010,03,20,13,33,11.90
2010,03,20,13,34,11.90
2010,03,20,13,35,11.90
2010,03,20,13,36,11.90
2010,03,20,13,37,11.90
2010,03,20,13,38,11.90
2010,03,20,13,39,11.90
2010,03,20,13,40,11.90
2010,03,20,13,41,11.90
2010,03,20,13,42,11.90
2010,03,20,13,43,11.90
2010,03,20,13,44,11.90
2010,03,20,13,45,11.90
2010,03,20,13,46,11.90
2010,03,20,13,47,11.90
2010,03,20,13,48,11.90
2010,03,20,13,49,11.90
2010,03,20,13,50,12.00
2010,03,20,13,51,12.00
2010,03,20,13,52,12.00
2010,03,20,13,53,12.00
2010,03,20,13,54,12.10
2010,03,20,13,55,12.10
2010,03,20,13,56,12.10
2010,03,20,13,57,12.10
2010,03,20,13,58,12.10
2010,03,20,13,59,12.10
2010,03,20,14,00,12.10
2010,03,20,14,01,12.10
2010,03,20,14,02,12.10
2010,03,20,14,03,12.20
2010,03,20,14,04,12.20
2010,03,20,14,05,12.30
2010,03,20,14,06,12.30
2010,03,20,14,07,12.30
2010,03,20,14,08,12.30
2010,03,20,14,09,12.20
2010,03,20,14,10,12.20
2010,03,20,14,11,12.20
2010,03,20,14,12,12.10
2010,03,20,14,13,12.10
2010,03,20,14,14,12.10
2010,03,20,14,15,12.00
2010,03,20,14,16,12.00
2010,03,20,14,17,12.00
2010,03,20,14,18,12.00
2010,03,20,14,19,12.00
2010,03,20,14,20,12.00
2010,03,20,14,21,12.10
2010,03,20,14,22,12.10
2010,03,20,14,23,12.20
2010,03,20,14,24,12.20
2010,03,20,14,25,12.20
2010,03,20,14,26,12.20
2010,03,20,14,27,12.20
2010,03,20,14,28,12.20
2010,03,20,14,29,12.20
2010,03,20,14,30,12.20
2010,03,20,14,31,12.20
2010,03,20,14,32,12.20
2010,03,20,14,33,12.30
2010,03,20,14,34,12.40
2010,03,20,14,35,12.40
2010,03,20,14,36,12.50
2010,03,20,14,37,12.60
2010,03,20,14,38,12.60
2010,03,20,14,39,12.60
2010,03,20,14,40,12.60
2010,03,20,14,41,12.60
2010,03,20,14,42,12.60
2010,03,20,14,43,12.70
2010,03,20,14,44,12.80
2010,03,20,14,45,12.80
2010,03,20,14,46,12.80
2010,03,20,14,47,12.80
2010,03,20,14,48,12.80
2010,03,20,14,49,12.80
2010,03,20,14,50,12.80
2010,03,20,14,51,12.90
2010,03,20,14,52,12.90
2010,03,20,14,53,12.90
2010,03,20,14,54,12.90
2010,03,20,14,55,12.90
2010,03,20,14,56,13.00
2010,03,20,14,57,13.00
2010,03,20,14,58,12.90
2010,03,20,14,59,12.90
2010,03,20,15,00,12.90
2010,03,20,15,01,12.90
2010,03,20,15,02,12.90
2010,03,20,15,03,12.90
2010,03,20,15,04,12.90
2010,03,20,15,05,12.90
2010,03,20,15,06,12.90
2010,03,20,15,07,13.00
2010,03,20,15,08,13.00
2010,03,20,15,09,13.00
2010,03,20,15,10,12.90
2010,03,20,15,11,13.00
2010,03,20,15,12,12.90
2010,03,20,15,13,12.90
2010,03,20,15,14,12.90
2010,03,20,15,15,12.90
2010,03,20,15,16,12.80
2010,03,20,15,17,12.80
2010,03,20,15,18,12.80
2010,03,20,15,19,12.80
2010,03,20,15,20,12.80
2010,03,20,15,21,12.80
2010,03,20,15,22,12.80
2010,03,20,15,23,12.80
2010,03,20,15,24,12.90
2010,03,20,15,25,12.90
2010,03,20,15,26,12.90
2010,03,20,15,27,12.90
2010,03,20,15,28,12.90
2010,03,20,15,29,13.00
2010,03,20,15,30,13.00
2010,03,20,15,31,13.10
2010,03,20,15,32,13.10
2010,03,20,15,33,13.10
2010,03,20,15,34,13.20
2010,03,20,15,35,13.20
2010,03,20,15,36,13.30
2010,03,20,15,37,13.30
2010,03,20,15,38,13.30
2010,03,20,15,39,13.30
2010,03,20,15,40,13.30
2010,03,20,15,41,13.30
2010,03,20,15,42,13.40
2010,03,20,15,43,13.40
2010,03,20,15,44,13.40
2010,03,20,15,45,13.40
2010,03,20,15,46,13.40
2010,03,20,15,47,13.50
2010,03,20,15,48,13.50
2010,03,20,15,49,13.60
2010,03,20,15,50,13.60
2010,03,20,15,51,13.50
2010,03,20,15,52,13.50
2010,03,20,15,53,13.50
2010,03,20,15,54,13.50
2010,03,20,15,55,13.40
2010,03,20,15,56,13.40
2010,03,20,15,57,13.40
2010,03,20,15,58,13.40
2010,03,20,15,59,13.40
2010,03,20,16,00,13.40
2010,03,20,16,01,13.40
2010,03,20,16,02,13.40
2010,03,20,16,03,13.40
2010,03,20,16,04,13.30
2010,03,20,16,05,13.30
2010,03,20,16,06,13.30
2010,03,20,16,07,13.30
2010,03,20,16,08,13.30
2010,03,20,16,09,13.40
2010,03,20,16,10,13.40
2010,03,20,16,11,13.30
2010,03,20,16,12,13.30
2010,03,20,16,13,13.30
2010,03,20,16,14,13.30
2010,03,20,16,15,13.40
2010,03,20,16,16,13.40
2010,03,20,16,17,13.40
2010,03,20,16,18,13.40
2010,03,20,16,19,13.50
2010,03,20,16,20,13.50
2010,03,20,16,21,13.50
2010,03,20,16,22,13.50
2010,03,20,16,23,13.50
2010,03,20,16,24,13.60
2010,03,20,16,25,13.60
2010,03,20,16,26,13.60
2010,03,20,16,27,13.60
2010,03,20,16,28,13.60
2010,03,20,16,29,13.50
2010,03,20,16,30,13.50
2010,03,20,16,31,13.50
2010,03,20,16,32,13.60
2010,03,20,16,33,13.60
2010,03,20,16,34,13.70
2010,03,20,16,35,13.70
2010,03,20,16,36,13.70
2010,03,20,16,37,13.70
2010,03,20,16,38,13.70
2010,03,20,16,39,13.60
2010,03,20,16,40,13.60
2010,03,20,16,41,13.60
2010,03,20,16,42,13.60
2010,03,20,16,43,13.60
2010,03,20,16,44,13.60
2010,03,20,16,45,13.60
2010,03,20,16,46,13.60
2010,03,20,16,47,13.50
2010,03,20,16,48,13.50
2010,03,20,16,49,13.50
2010,03,20,16,50,13.50
2010,03,20,16,51,13.50
2010,03,20,16,52,13.50
2010,03,20,16,53,13.50
2010,03,20,16,54,13.50
2010,03,20,16,55,13.50
2010,03,20,16,56,13.40
2010,03,20,16,57,13.40
2010,03,20,16,58,13.40
2010,03,20,16,59,13.40
2010,03,20,17,00,13.30
2010,03,20,17,01,13.30
2010,03,20,17,02,13.30
2010,03,20,17,03,13.30
2010,03,20,17,04,13.30
2010,03,20,17,05,13.30
2010,03,20,17,06,13.30
2010,03,20,17,07,13.30
2010,03,20,17,08,13.30
2010,03,20,17,09,13.20
2010,03,20,17,10,13.20
2010,03,20,17,11,13.20
2010,03,20,17,12,13.20
2010,03,20,17,13,13.20
2010,03,20,17,14,13.20
2010,03,20,17,15,13.20
2010,03,20,17,16,13.10
2010,03,20,17,17,13.10
2010,03,20,17,18,13.10
2010,03,20,17,19,13.10
2010,03,20,17,20,13.10
2010,03,20,17,21,13.20
2010,03,20,17,22,13.20
2010,03,20,17,23,13.20
2010,03,20,17,24,13.20
2010,03,20,17,25,13.20
2010,03,20,17,26,13.20
2010,03,20,17,27,13.20
2010,03,20,17,28,13.20
2010,03,20,17,29,13.20
2010,03,20,17,30,13.20
2010,03,20,17,31,13.20
2010,03,20,17,32,13.20
2010,03,20,17,33,13.20
2010,03,20,17,34,13.20
2010,03,20,17,35,13.20
2010,03,20,17,36,13.20
2010,03,20,17,37,13.20
2010,03,20,17,38,13.20
2010,03,20,17,39,13.20
2010,03,20,17,40,13.20
2010,03,20,17,41,13.20
2010,03,20,17,42,13.20